This demonstration page uses our WeatherBlox Daily Observations layout. Learn more.

Left ArrowRight Arrow

Hourly Observations for March 20, 2019

Temp ( °F °C ) Dew Point ( °F °C ) Humidity (%) Winds ( mph kmh ) Pressure ( in mb ) Visibility ( mi km ) Precip ( " mm )
12:51 am 00:51 Mostly Clear 49 9.4 37 2.8 64 64 NNE 5 7 29.94 1014 10 16 N/A
1:51 am 01:51 Partly Cloudy 51 10.6 36 2.2 56 56 E 6 9 29.94 1014 10 16 N/A
2:51 am 02:51 Clear 53 11.7 35 1.7 51 51 SW 5 7 29.93 1013 10 16 N/A
3:51 am 03:51 Clear 47 8.3 36 2.2 66 66 N N/A 29.93 1013 10 16 N/A
4:51 am 04:51 Clear 51 10.6 33 0.6 50 50 E 8 13 29.93 1014 10 16 N/A
5:51 am 05:51 Clear 51 10.6 32 undefined 48 48 E 9 15 29.95 1014 10 16 N/A
6:51 am 06:51 Mostly Cloudy 53 11.7 32 undefined 45 45 ESE 13 20 29.98 1015 10 16 N/A
8:51 am 08:51 Partly Cloudy 62 16.7 33 0.6 34 34 ESE 10 17 30.02 1017 10 16 N/A
10:51 am 10:51 Mostly Sunny 71 21.7 33 0.6 25 25 S 12 19 30.00 1016 10 16 N/A
11:51 am 11:51 Mostly Sunny 71 21.7 32 undefined 24 24 SSE 8 13 29.98 1015 10 16 N/A
12:51 pm 12:51 Sunny 75 23.9 32 undefined 21 21 E 5 7 29.96 1014 10 16 N/A
1:51 pm 13:51 Mostly Sunny 78 25.6 32 undefined 19 19 ESE 12 19 29.91 1013 10 16 N/A
2:51 pm 14:51 Mostly Sunny 77 25 31 -0.6 18 18 ESE 14 22 29.88 1012 10 16 N/A
3:51 pm 15:51 Sunny 79 26.1 32 undefined 18 18 SE 13 20 29.86 1011 10 16 N/A
4:51 pm 16:51 Cloudy 76 24.4 30 -1.1 18 18 ESE 13 20 29.85 1011 10 16 N/A
5:51 pm 17:51 Partly Cloudy 75 23.9 31 -0.6 20 20 ESE 12 19 29.84 1011 10 16 N/A
6:51 pm 18:51 Cloudy 73 22.8 31 -0.6 21 21 SE 8 13 29.85 1011 10 16 N/A
7:51 pm 19:51 Cloudy 72 22.2 30 -1.1 21 21 SE 16 26 29.84 1011 10 16 N/A
8:51 pm 20:51 Cloudy 70 21.1 35 1.7 28 28 E 14 22 29.85 1011 10 16 N/A
9:51 pm 21:51 Cloudy 69 20.6 31 -0.6 24 24 ESE 14 22 29.86 1011 10 16 N/A
10:51 pm 22:51 Cloudy 69 20.6 33 0.6 26 26 SE 21 33 29.85 1011 10 16 N/A
11:51 pm 23:51 Cloudy 66 18.9 34 1.1 30 30 ESE 12 19 29.87 1012 10 16 N/A

Powered by AerisWeather